WB7TUJ Weather Reports


Display with metric or nautical units.
time (UTC)temp
F
wind
direction
speed
MPH
gust
MPH
rain 1hr
in
rain 24hr
in
rain mn
in
humidity
%
barometer
mb
20260510203045 101 156 0.0 11.0 0.00 0.00 0.00 14 965.8
20260510201548 100 131 0.0 8.0 0.00 0.00 0.00 14 966.0
20260510200042 99 236 0.0 6.0 0.00 0.00 0.00 14 966.1
20260510194543 98 197 0.0 0.0 0.00 0.00 0.00 15 966.2
20260510193043 99 158 0.0 0.0 0.00 0.00 0.00 14 966.3
20260510191538 98 158 0.0 0.0 0.00 0.00 0.00 14 966.4
20260510190038 97 140 0.0 11.0 0.00 0.00 0.00 15 966.6
20260510184538 96 214 0.0 9.0 0.00 0.00 0.00 15 966.7
20260510183037 96 192 0.0 10.0 0.00 0.00 0.00 17 966.8
20260510181540 96 133 0.0 4.0 0.00 0.00 0.00 15 966.9
20260510180034 94 200 0.0 8.0 0.00 0.00 0.00 17 967.0
20260510174530 94 157 0.0 7.0 0.00 0.00 0.00 15 967.1
20260510173027 94 140 0.0 0.0 0.00 0.00 0.00 17 967.1
20260510171526 93 41 0.0 1.0 0.00 0.00 0.00 16 967.0
20260510170024 93 19 0.0 0.0 0.00 0.00 0.00 17 967.0
20260510164527 91 19 0.0 0.0 0.00 0.00 0.00 17 966.9
20260510163019 90 5 0.0 0.0 0.00 0.00 0.00 18 966.9
20260510161517 90 360 0.0 0.0 0.00 0.00 0.00 19 966.8
20260510160014 88 360 0.0 0.0 0.00 0.00 0.00 19 966.8
20260510154512 87 360 0.0 0.0 0.00 0.00 0.00 19 966.7
20260510153011 85 360 0.0 0.0 0.00 0.00 0.00 21 966.7
20260510151510 83 360 0.0 0.0 0.00 0.00 0.00 21 966.8
20260510150010 82 360 0.0 0.0 0.00 0.00 0.00 22 966.7
20260510144515 80 279 0.0 0.0 0.00 0.00 0.00 23 966.7
20260510143009 79 279 0.0 0.0 0.00 0.00 0.00 24 966.7
20260510141510 79 279 0.0 0.0 0.00 0.00 0.00 24 966.4
20260510140005 78 279 0.0 0.0 0.00 0.00 0.00 24 966.4
20260510134505 77 279 0.0 0.0 0.00 0.00 0.00 25 966.3
20260510133003 75 279 0.0 0.0 0.00 0.00 0.00 27 966.2
20260510131605 74 279 0.0 0.0 0.00 0.00 0.00 27 966.1
20260510130057 73 279 0.0 0.0 0.00 0.00 0.00 25 965.7
20260510124604 72 279 0.0 0.0 0.00 0.00 0.00 27 965.5
20260510123059 72 279 0.0 0.0 0.00 0.00 0.00 28 965.3
20260510121552 73 279 0.0 0.0 0.00 0.00 0.00 28 965.2
20260510120050 73 279 0.0 0.0 0.00 0.00 0.00 29 965.2
20260510114553 73 279 0.0 0.0 0.00 0.00 0.00 30 965.1
20260510113047 73 279 0.0 0.0 0.00 0.00 0.00 29 965.1
20260510111645 74 279 0.0 0.0 0.00 0.00 0.00 29 965.2
20260510110046 74 279 0.0 0.0 0.00 0.00 0.00 30 965.0
20260510104540 74 279 0.0 0.0 0.00 0.00 0.00 31 964.7
20260510103138 74 279 0.0 0.0 0.00 0.00 0.00 32 964.7
20260510101535 75 279 0.0 0.0 0.00 0.00 0.00 32 964.6
20260510100035 76 279 0.0 0.0 0.00 0.00 0.00 30 964.4
20260510094541 77 279 0.0 0.0 0.00 0.00 0.00 27 964.3
20260510093026 78 279 0.0 0.0 0.00 0.00 0.00 26 964.3
20260510091532 78 279 0.0 0.0 0.00 0.00 0.00 25 964.1
20260510090024 78 279 0.0 0.0 0.00 0.00 0.00 25 964.1
20260510084520 79 279 0.0 0.0 0.00 0.00 0.00 24 964.1
20260510083020 80 279 0.0 0.0 0.00 0.00 0.00 24 964.0
20260510081513 81 279 0.0 0.0 0.00 0.00 0.00 23 964.0
20260510080023 81 279 0.0 0.0 0.00 0.00 0.00 23 964.1
20260510074508 82 279 0.0 0.0 0.00 0.00 0.00 22 964.0
20260510073014 84 279 0.0 0.0 0.00 0.00 0.00 20 964.0
20260510071501 85 279 0.0 0.0 0.00 0.00 0.00 21 963.9
20260510070058 87 279 0.0 0.0 0.00 0.00 0.00 18 963.9
20260510064604 87 279 0.0 0.0 0.00 0.00 0.00 18 963.8
20260510063056 87 279 0.0 0.0 0.00 0.00 0.00 19 963.8
20260510061559 88 279 0.0 0.0 0.00 0.00 0.00 17 963.6
20260510060056 88 279 0.0 0.0 0.00 0.00 0.00 17 963.5
20260510054555 89 279 0.0 0.0 0.00 0.00 0.00 17 963.4
20260510053055 90 279 0.0 0.0 0.00 0.00 0.00 16 963.4
20260510051603 91 279 0.0 0.0 0.00 0.00 0.00 16 963.2
20260510050054 90 268 0.0 0.0 0.00 0.00 0.00 16 963.1
20260510044604 91 257 0.0 0.0 0.00 0.00 0.00 16 963.0
20260510043053 92 258 0.0 0.0 0.00 0.00 0.00 16 962.9
20260510041552 93 258 0.0 0.0 0.00 0.00 0.00 15 962.8
20260510040053 93 258 0.0 0.0 0.00 0.00 0.00 15 962.6
20260510034552 94 258 0.0 0.0 0.00 0.00 0.00 15 962.4
20260510033058 95 257 0.0 0.0 0.00 0.00 0.00 15 962.3
20260510031550 95 257 0.0 2.0 0.00 0.00 0.00 14 962.1
20260510030100 96 265 0.0 9.0 0.00 0.00 0.00 14 961.9
20260510024550 96 259 0.0 11.0 0.00 0.00 0.00 14 961.7
20260510023050 97 267 3.0 12.0 0.00 0.00 0.00 14 961.6
20260510021548 98 277 4.0 11.0 0.00 0.00 0.00 14 961.5
20260510020048 98 265 7.0 15.0 0.00 0.00 0.00 14 961.5
20260510014546 99 260 4.0 14.0 0.00 0.00 0.00 14 961.3
20260510013046 99 249 8.0 15.0 0.00 0.00 0.00 14 961.3
20260510011548 100 281 9.0 13.0 0.00 0.00 0.00 14 961.3
20260510010044 100 259 7.0 14.0 0.00 0.00 0.00 14 961.4
20260510004548 101 269 0.0 18.0 0.00 0.00 0.00 14 961.4
20260510003043 101 284 3.0 14.0 0.00 0.00 0.00 13 961.4
20260510001541 101 279 10.0 16.0 0.00 0.00 0.00 13 961.5
20260510000043 101 288 8.0 13.0 0.00 0.00 0.00 14 961.5
20260509234542 101 286 1.0 16.0 0.00 0.00 0.00 13 961.6
20260509233038 101 290 2.0 16.0 0.00 0.00 0.00 13 961.7
20260509231540 102 301 2.0 14.0 0.00 0.00 0.00 13 961.8
20260509230033 102 134 0.0 12.0 0.00 0.00 0.00 13 961.9
20260509224533 101 250 3.0 10.0 0.00 0.00 0.00 14 962.2
20260509223031 101 249 7.0 13.0 0.00 0.00 0.00 14 962.4
20260509221525 101 234 4.0 12.0 0.00 0.00 0.00 14 962.6
20260509220027 100 246 4.0 14.0 0.00 0.00 0.00 14 962.9
20260509214522 100 258 4.0 15.0 0.00 0.00 0.00 14 963.2
20260509213020 100 238 0.0 12.0 0.00 0.00 0.00 15 963.3
20260509211518 100 297 4.0 14.0 0.00 0.00 0.00 15 963.6
20260509210015 99 278 2.0 12.0 0.00 0.00 0.00 16 963.8